Temp
13 13 14 14 15 14 14 14 13 13 13 13 13 13 12 13 12 12 12 12 12 12 11 11 11 11 10 10 10 10 9 9 9 9 9 8 8 8 8 7 7 7
13 13 14 14 15 15 14 14 14 13 13 13 13 13 13 13 13 12 12 12 12 12 11 11 11 11 10 10 10 9 9 9 9 9 9 8 8 8 8 7 7 7
13 14 14 15 15 15 14 14 14 14 13 13 13 13 13 13 13 12 12 12 12 12 11 11 11 11 10 10 10 9 9 9 9 9 9 8 8 8 8 7 7 7
14 14 14 15 15 15 14 14 14 14 14 13 13 13 13 13 13 12 12 12 12 12 11 11 11 11 10 10 10 9 9 9 9 9 9 9 8 8 8 8 7 7
14 14 15 15 15 14 14 14 14 14 14 14 13 13 13 13 13 12 12 12 12 12 11 11 11 11 10 10 10 9 9 9 9 9 9 9 9 8 8 8 8 8
14 14 15 15 15 14 14 14 14 14 14 13 13 13 13 13 13 12 12 12 12 12 11 11 11 11 10 10 10 9 9 9 9 9 9 9 9 9 8 8 8 8
14 15 15 15 15 14 14 14 14 14 14 13 13 13 13 13 13 12 12 12 12 12 11 11 11 11 10 10 10 9 9 9 9 9 9 9 8 8 8 8 8 8
15 15 15 15 15 14 14 14 14 14 14 13 13 13 13 13 13 12 12 12 12 12 12 11 11 11 10 10 10 10 9 9 9 9 9 9 8 8 8 8 8 8
15 15 15 15 15 15 14 14 14 14 14 13 13 13 13 13 13 12 12 12 12 12 12 11 11 11 10 10 10 10 9 9 9 9 9 8 8 8 8 8 8 8
16 15 15 15 15 15 15 14 14 14 14 14 13 13 13 13 13 12 12 12 12 12 12 11 11 11 10 10 10 10 9 9 9 9 8 8 8 8 8 7 7 7
16 16 15 15 15 15 15 15 14 14 14 14 13 13 13 13 13 12 12 12 12 12 12 11 11 11 11 10 10 10 9 9 8 8 8 8 8 8 7 7 7 7
16 16 16 15 15 15 15 15 14 14 14 14 13 13 13 13 13 13 12 12 12 12 12 11 11 11 11 10 10 10 9 9 9 8 8 8 8 7 7 7 7 7
16 16 16 15 15 15 15 15 15 14 14 14 14 13 13 13 13 13 12 12 12 12 12 12 11 11 11 11 10 10 9 9 9 8 8 8 8 7 7 7 7 7
16 16 15 15 15 15 15 15 15 15 14 14 14 13 13 13 13 13 13 12 12 12 12 12 12 11 11 11 11 10 10 9 9 8 8 8 8 7 7 7 7 7
16 16 15 15 15 15 15 15 15 15 15 14 14 14 14 13 13 13 13 13 12 12 12 12 12 12 11 11 11 10 10 9 9 8 8 8 8 8 7 7 7 7
16 16 15 15 15 15 15 15 15 15 15 14 14 14 14 13 13 13 13 13 13 12 12 12 12 12 12 11 11 10 10 9 9 9 8 8 8 8 7 7 7 6
16 16 15 15 15 15 15 15 15 15 14 14 14 14 14 14 13 13 13 13 13 13 12 12 12 12 12 11 11 10 10 9 9 9 9 9 8 8 7 7 7 6
16 16 16 15 15 15 15 15 15 15 14 14 14 14 14 14 13 13 13 13 13 13 12 12 12 12 11 11 11 11 10 9 9 10 9 9 8 8 8 7 7 7
16 16 16 15 15 15 15 15 15 14 14 14 14 14 14 14 14 13 13 13 13 13 12 12 12 11 11 11 11 11 10 9 9 10 9 9 9 8 8 7 7 7
16 16 16 15 15 15 15 14 14 14 14 14 14 14 14 14 14 13 13 13 13 13 12 12 11 11 11 11 10 10 10 9 9 8 8 8 9 8 8 8 7 7
16 16 16 15 15 15 15 14 14 14 14 14 14 14 14 14 13 13 13 13 13 12 12 11 11 11 11 11 11 10 10 9 8 8 8 8 8 8 8 8 7 7
17 16 16 16 15 15 15 14 14 14 14 14 14 14 13 13 13 13 13 13 12 12 12 11 11 11 11 11 11 11 10 9 9 9 9 9 8 8 8 7 7 7
17 16 16 16 15 15 15 15 14 14 14 14 14 14 14 13 13 13 12 12 12 12 12 11 11 12 12 12 12 12 11 9 9 10 9 9 8 8 7 7 7 6
18 17 16 16 16 16 16 15 15 14 14 14 14 14 14 13 13 12 12 12 12 12 12 12 12 12 12 12 12 12 11 9 8 9 8 8 8 8 7 7 6 6
18 18 17 16 16 16 16 16 15 14 14 14 14 14 14 13 13 12 12 12 12 12 12 12 12 12 12 12 12 12 11 9 8 8 8 7 7 7 7 7 6 6
18 18 17 17 16 16 16 16 15 14 14 14 14 14 13 13 12 12 12 12 12 12 12 12 12 12 12 11 11 11 10 9 8 8 8 8 8 7 7 7 6 6
Height
3180 3182 3184 3185 3186 3187 3188 3189 3190 3191 3192 3193 3194 3195 3197 3198 3199 3200 3201 3202 3203 3203 3204 3204 3205 3206 3206 3207 3206 3206 3205 3205 3205 3205 3204 3204 3203 3203 3202 3201 3201 3200
3177 3179 3180 3182 3183 3184 3186 3187 3188 3189 3190 3192 3193 3194 3195 3196 3197 3198 3199 3200 3201 3202 3202 3203 3203 3204 3205 3205 3205 3204 3204 3203 3204 3203 3203 3202 3202 3201 3200 3200 3199 3198
3174 3175 3177 3179 3181 3182 3184 3185 3186 3187 3188 3189 3191 3192 3193 3194 3196 3196 3197 3198 3199 3199 3200 3200 3201 3202 3202 3203 3203 3203 3202 3202 3202 3202 3202 3201 3200 3199 3199 3198 3197 3196
3171 3172 3174 3176 3177 3180 3182 3183 3184 3185 3186 3187 3189 3190 3191 3192 3193 3194 3195 3196 3196 3197 3197 3198 3199 3199 3200 3201 3201 3201 3201 3201 3201 3201 3200 3200 3199 3198 3197 3196 3195 3194
3169 3170 3171 3173 3174 3177 3179 3180 3181 3183 3184 3185 3187 3188 3189 3190 3191 3192 3193 3194 3194 3195 3195 3196 3197 3197 3198 3198 3199 3199 3199 3199 3199 3199 3199 3198 3197 3196 3196 3194 3193 3192
3165 3167 3168 3169 3171 3174 3176 3178 3179 3181 3182 3183 3184 3186 3187 3188 3189 3190 3191 3191 3192 3192 3193 3194 3195 3195 3196 3196 3197 3197 3197 3197 3198 3197 3197 3196 3196 3195 3194 3193 3192 3191
3162 3164 3165 3167 3168 3171 3173 3175 3176 3178 3179 3181 3182 3183 3184 3186 3187 3188 3188 3189 3190 3190 3191 3192 3192 3193 3193 3193 3194 3195 3195 3195 3195 3195 3195 3194 3194 3193 3192 3192 3191 3190
3160 3161 3162 3164 3166 3168 3170 3172 3174 3175 3177 3178 3180 3181 3182 3183 3184 3185 3186 3187 3187 3188 3189 3190 3190 3191 3191 3191 3192 3192 3192 3193 3193 3193 3193 3192 3192 3191 3190 3190 3189 3188
3157 3158 3160 3161 3163 3165 3167 3169 3171 3172 3174 3175 3177 3178 3180 3181 3182 3183 3183 3184 3185 3186 3187 3187 3188 3189 3189 3190 3190 3190 3190 3190 3190 3191 3191 3190 3190 3189 3188 3187 3187 3186
3155 3156 3157 3158 3160 3162 3165 3167 3168 3169 3171 3173 3174 3176 3177 3178 3179 3180 3181 3182 3183 3183 3184 3185 3186 3186 3187 3188 3188 3188 3188 3189 3189 3189 3188 3188 3187 3187 3186 3185 3184 3183
3153 3154 3155 3156 3158 3160 3162 3164 3165 3166 3168 3170 3171 3173 3174 3175 3176 3177 3178 3179 3180 3181 3182 3183 3184 3185 3185 3186 3186 3186 3187 3187 3187 3186 3186 3185 3185 3184 3183 3182 3182 3181
3150 3152 3153 3154 3156 3158 3160 3161 3162 3164 3165 3167 3168 3170 3172 3173 3173 3175 3176 3177 3178 3179 3180 3181 3182 3183 3183 3184 3184 3184 3185 3185 3184 3184 3183 3182 3182 3181 3180 3179 3178 3178
3148 3150 3151 3152 3153 3155 3157 3158 3160 3161 3162 3164 3166 3167 3169 3170 3171 3173 3174 3175 3176 3177 3178 3179 3180 3180 3181 3181 3182 3182 3182 3182 3182 3181 3180 3179 3178 3177 3176 3175 3175 3175
3145 3147 3149 3150 3151 3153 3154 3155 3157 3158 3160 3162 3163 3165 3167 3168 3170 3172 3172 3173 3174 3175 3176 3177 3177 3177 3178 3179 3179 3179 3179 3179 3179 3178 3177 3176 3175 3174 3173 3172 3171 3171
3142 3145 3147 3148 3149 3150 3151 3153 3154 3156 3158 3159 3161 3163 3165 3167 3169 3170 3171 3172 3173 3174 3174 3174 3174 3174 3175 3176 3176 3176 3176 3176 3176 3175 3173 3171 3170 3170 3169 3168 3168 3168
3140 3142 3144 3145 3146 3147 3148 3150 3152 3154 3155 3157 3159 3161 3164 3165 3167 3168 3169 3170 3171 3172 3171 3171 3172 3172 3172 3173 3173 3173 3173 3173 3172 3171 3169 3167 3166 3166 3165 3164 3164 3164
3137 3138 3140 3142 3144 3145 3146 3148 3149 3151 3153 3155 3157 3160 3162 3163 3165 3166 3167 3168 3169 3169 3169 3169 3169 3169 3169 3169 3169 3169 3169 3168 3168 3166 3164 3163 3163 3162 3162 3161 3160 3161
3133 3135 3137 3139 3141 3143 3145 3146 3147 3149 3150 3152 3155 3158 3160 3161 3162 3163 3165 3166 3166 3167 3167 3167 3166 3166 3165 3165 3165 3165 3163 3163 3163 3161 3159 3160 3160 3159 3158 3158 3157 3157
3131 3132 3135 3137 3139 3141 3143 3144 3145 3146 3148 3150 3153 3156 3158 3159 3159 3160 3162 3163 3163 3164 3164 3164 3163 3162 3162 3161 3162 3161 3157 3156 3158 3157 3156 3157 3158 3156 3155 3155 3155 3154
3128 3130 3132 3134 3137 3139 3140 3141 3143 3144 3145 3147 3150 3153 3154 3155 3156 3157 3158 3159 3160 3161 3161 3161 3160 3160 3159 3159 3159 3156 3153 3152 3152 3153 3154 3156 3155 3153 3153 3152 3151 3151
3125 3127 3130 3132 3134 3135 3137 3139 3140 3141 3142 3145 3147 3149 3150 3151 3153 3154 3155 3156 3157 3158 3158 3158 3158 3157 3156 3156 3154 3152 3149 3149 3149 3150 3152 3153 3151 3150 3149 3149 3148 3147
3122 3124 3126 3128 3130 3132 3134 3135 3136 3137 3140 3142 3144 3145 3146 3147 3149 3150 3151 3152 3153 3154 3155 3155 3154 3154 3153 3152 3150 3148 3146 3145 3146 3147 3147 3146 3146 3146 3146 3145 3144 3144
3119 3121 3123 3125 3127 3128 3130 3131 3132 3134 3137 3139 3140 3140 3142 3144 3146 3147 3148 3149 3150 3151 3151 3151 3150 3150 3149 3148 3147 3145 3144 3143 3143 3142 3141 3141 3142 3142 3141 3141 3140 3140
3115 3118 3120 3121 3123 3124 3125 3126 3128 3130 3133 3134 3135 3136 3139 3141 3143 3144 3145 3145 3147 3147 3147 3146 3146 3147 3146 3145 3144 3143 3142 3141 3139 3138 3137 3138 3138 3138 3137 3137 3136 3136
3112 3114 3115 3117 3118 3120 3121 3122 3124 3127 3128 3130 3131 3133 3135 3137 3138 3139 3140 3141 3142 3142 3143 3143 3143 3143 3143 3142 3141 3140 3140 3139 3137 3135 3136 3136 3134 3133 3133 3133 3133 3133
3108 3109 3110 3112 3114 3115 3116 3118 3121 3123 3124 3126 3128 3129 3131 3132 3133 3134 3136 3137 3138 3138 3139 3139 3140 3140 3139 3138 3138 3138 3137 3136 3134 3133 3133 3132 3130 3130 3130 3130 3130 3130
Wind_Speed
23 22 20 18 18 18 17 16 15 15 14 13 13 12 12 13 13 12 9 9 9 8 8 8 4 1 2 3 5 6 8 10 12 15 17 18 18 15 13 13 14 16
25 22 21 20 19 19 18 16 15 14 13 13 15 15 15 15 15 13 10 9 9 9 9 8 5 3 2 2 4 6 8 10 12 15 17 18 18 16 14 14 15 17
25 23 22 21 20 19 17 16 15 15 15 15 17 17 17 16 15 14 12 10 10 9 9 9 7 5 5 3 4 5 7 9 12 15 17 18 18 17 15 16 17 18
26 24 23 22 22 20 18 17 17 16 16 17 18 18 19 18 16 15 13 11 10 10 11 11 9 8 8 6 4 5 6 8 10 13 16 18 18 17 17 18 18 19
26 25 24 24 23 21 19 18 18 18 18 18 18 19 19 18 17 16 14 12 11 11 12 12 10 10 10 9 6 5 6 7 9 12 15 17 18 18 18 19 21 21
27 26 26 26 25 23 21 20 20 20 20 19 19 19 19 18 17 16 14 13 12 12 13 13 12 11 11 11 9 8 7 8 10 12 14 17 18 18 18 19 21 22
27 27 27 27 26 24 22 22 22 21 21 21 21 20 19 19 17 16 15 14 14 14 13 13 13 13 13 12 12 12 11 12 13 15 17 19 19 19 18 18 19 21
27 28 28 28 27 26 24 23 23 23 22 22 21 20 20 19 18 17 16 15 15 13 13 13 13 14 13 13 14 15 15 15 17 19 20 21 22 21 19 18 18 18
27 29 29 29 29 27 25 24 24 24 23 22 21 21 20 19 19 18 17 16 15 13 12 13 13 13 12 11 12 14 16 18 19 21 22 23 23 23 21 19 17 17
27 30 30 30 30 28 26 24 24 24 24 22 22 22 21 20 19 18 17 16 15 13 12 12 11 12 12 11 11 12 15 18 20 21 22 23 24 24 22 20 18 17
27 30 31 31 30 29 27 25 24 24 24 23 23 23 23 22 21 19 18 17 15 13 12 11 11 12 14 14 14 15 16 18 20 21 22 23 24 25 23 21 20 19
26 29 31 31 31 29 27 25 23 23 24 24 24 24 24 23 22 20 19 17 15 14 13 12 12 13 15 16 17 18 18 20 22 22 22 23 24 24 24 23 23 21
27 28 30 31 30 29 28 26 24 24 25 26 26 26 25 24 23 21 18 17 16 16 15 14 14 15 16 16 18 20 20 21 22 23 24 24 23 23 23 23 24 23
28 28 30 31 31 31 30 28 26 26 27 28 28 27 26 25 23 21 20 19 19 18 18 18 19 19 19 19 21 23 23 23 24 26 28 27 26 25 24 23 24 25
30 29 30 31 32 32 31 30 29 29 29 30 30 29 27 26 25 24 24 23 22 21 21 22 22 22 22 23 24 25 26 26 27 29 31 32 30 29 27 24 24 24
32 31 32 33 33 33 32 32 31 31 31 31 30 28 27 26 25 25 24 24 22 22 23 23 23 23 24 25 27 28 29 29 29 31 33 34 34 33 31 29 26 24
33 33 33 34 34 34 33 33 32 32 32 32 31 29 28 27 26 26 25 23 23 23 23 23 24 25 27 28 29 30 30 30 30 32 34 34 34 34 33 32 30 27
34 34 34 35 35 35 34 34 34 34 34 33 32 31 29 28 28 27 26 25 25 24 24 24 25 26 27 29 30 30 31 30 29 32 34 33 32 33 32 31 31 28
35 34 34 35 35 35 34 35 36 36 35 35 34 31 30 30 30 29 28 27 26 24 23 24 25 27 28 30 31 32 33 32 30 31 31 29 29 32 31 30 29 28
36 35 34 35 36 36 35 35 36 36 35 34 32 31 32 32 31 30 28 27 25 23 23 25 27 28 29 31 32 33 34 33 31 31 28 25 27 30 30 28 27 26
35 34 34 35 36 37 37 36 35 35 35 32 29 29 30 30 30 29 27 25 23 23 24 26 28 29 29 29 30 31 32 33 32 32 29 24 25 27 27 26 25 25
34 34 34 35 37 37 37 37 36 36 33 30 29 28 28 28 27 26 25 24 24 25 26 27 28 27 26 26 26 28 31 32 32 34 32 27 25 26 25 23 22 22
32 32 33 35 36 37 37 37 37 35 32 31 31 30 28 26 24 23 23 25 25 25 26 26 25 23 23 24 26 29 31 32 32 34 33 30 28 26 23 21 20 20
33 30 32 36 36 36 37 38 38 35 33 33 33 30 28 26 23 23 25 26 24 24 23 23 22 21 23 25 27 30 32 31 33 34 33 31 29 26 22 20 19 19
35 33 32 35 37 38 38 39 38 35 34 34 32 29 28 27 25 26 27 25 23 23 22 21 21 22 25 28 30 31 31 30 32 32 30 28 27 24 21 19 18 18
34 37 36 35 37 39 40 41 39 36 35 33 30 28 28 28 28 28 26 24 23 22 21 21 21 23 28 31 32 32 31 29 29 28 25 24 23 21 19 18 17 17
Wind_Direction
232 237 238 231 224 224 227 226 225 226 228 227 220 212 204 199 197 197 189 175 178 191 205 220 240 300 4 356 348 347 345 340 334 330 330 334 339 342 342 340 337 336
230 232 231 224 219 221 222 221 222 221 219 216 211 205 201 197 194 191 182 177 181 189 203 217 226 230 247 326 347 345 339 337 334 331 331 331 333 335 335 335 334 335
228 227 225 219 217 219 218 217 218 215 212 209 203 200 199 195 189 186 183 183 188 193 204 216 222 232 249 278 325 342 340 335 336 339 337 335 332 330 329 330 331 333
226 222 219 216 215 217 216 214 213 210 208 205 199 197 197 193 187 186 186 187 193 201 211 222 229 240 253 264 292 328 337 333 337 344 345 343 339 334 329 328 328 330
224 220 215 213 213 214 212 208 206 206 206 203 199 197 195 194 191 190 191 192 198 209 219 227 235 243 252 258 266 294 317 321 328 338 343 345 345 344 340 335 331 329
221 217 213 211 212 213 210 204 202 204 205 204 201 198 195 196 196 196 199 202 209 217 224 231 239 245 252 256 256 269 293 305 313 322 329 333 338 342 344 344 339 333
219 214 211 211 211 212 209 205 204 204 204 205 203 199 197 198 199 200 204 210 216 222 228 234 242 248 254 259 261 267 280 294 303 311 317 321 325 330 337 342 342 339
218 214 212 212 211 211 208 205 205 204 205 206 204 201 200 201 203 206 209 215 221 225 231 238 245 252 260 267 270 272 277 287 297 306 312 315 318 321 327 335 340 340
218 215 214 213 213 211 209 206 205 206 206 204 203 203 203 203 205 209 213 219 224 228 234 240 246 252 261 272 278 277 277 281 291 302 309 312 313 315 320 327 333 336
221 217 215 215 215 212 209 207 206 207 207 204 203 204 205 206 208 211 215 219 223 226 230 234 240 249 256 265 273 276 276 277 285 295 303 307 309 310 314 319 324 329
223 221 218 218 217 213 210 208 206 207 207 205 204 204 206 209 211 213 216 220 222 225 228 232 240 249 256 261 265 271 276 278 282 290 297 303 306 306 309 313 317 322
223 223 222 220 218 215 212 209 206 203 203 203 201 202 205 209 213 216 219 222 225 230 234 239 246 253 260 266 270 273 276 278 281 286 292 298 301 301 303 308 311 314
223 224 225 223 220 216 213 210 205 198 197 199 199 202 206 209 212 216 220 224 230 236 241 246 252 258 262 267 271 274 276 278 281 284 288 292 295 295 297 302 306 307
225 224 225 225 222 218 215 213 207 200 197 198 201 205 208 211 214 219 224 231 237 244 250 254 258 263 266 269 272 275 279 282 284 285 287 291 293 292 290 295 299 300
227 226 225 225 224 220 218 215 212 208 205 205 207 211 214 218 222 227 233 239 244 250 255 259 263 267 270 273 275 278 281 283 284 286 287 289 291 291 287 287 290 293
228 227 226 225 225 222 220 218 217 217 216 216 217 220 224 228 231 234 239 243 249 253 258 262 267 270 273 276 278 279 281 283 284 285 285 286 289 293 292 287 284 286
228 228 228 226 226 224 223 222 222 223 224 225 227 228 232 236 238 241 245 249 253 257 261 266 270 272 275 277 277 279 279 280 280 281 282 284 289 294 297 291 282 280
229 229 229 228 227 227 226 226 227 227 228 230 232 234 237 241 244 246 249 252 256 259 263 266 268 270 272 272 273 274 273 273 275 277 280 285 290 293 296 292 283 281
230 230 230 230 230 229 228 229 230 231 233 234 236 238 241 243 245 247 249 251 254 256 259 260 262 265 267 269 272 273 273 273 274 275 277 286 294 294 292 289 284 284
231 230 231 231 230 231 231 231 232 233 234 237 239 240 241 242 244 246 248 251 252 253 253 254 258 264 269 273 276 277 277 277 274 273 275 285 295 295 288 282 282 286
230 230 231 231 231 232 233 232 233 233 234 236 237 237 238 240 242 244 246 248 249 249 251 255 262 268 273 277 279 277 277 277 278 283 287 290 295 295 288 280 281 287
228 227 229 231 231 232 233 233 233 234 233 234 234 235 235 236 238 240 240 241 243 248 254 260 265 268 270 272 272 272 272 275 283 292 297 299 299 296 289 283 283 287
229 227 226 230 232 232 232 233 234 235 234 234 233 233 232 232 233 234 236 239 245 253 259 262 262 261 260 260 263 267 270 276 285 291 294 298 298 294 290 288 287 288
230 228 226 229 232 234 233 233 234 236 236 234 233 232 231 230 230 233 236 242 251 259 261 258 255 252 252 256 262 268 273 280 286 288 290 292 293 293 292 290 289 291
233 232 230 230 232 235 235 234 234 235 236 233 230 230 230 228 229 234 239 245 254 259 255 249 250 253 256 259 264 270 277 282 285 285 286 287 289 290 290 288 290 293
242 236 233 231 232 235 237 235 232 232 232 229 228 230 230 229 231 236 242 248 253 251 243 243 253 261 262 262 265 274 282 284 283 283 284 285 286 287 288 290 293 292